軌道要素
Epoch 2015 Jan. 18.0 TT = JDT 2457040.5
T 2015 Jan. 6.35693 TT MPCW
q 4.2227415 (2000.0) P Q
z +0.0001567 Peri. 2.53032 +0.85023334 +0.31757870
+/-0.0000114 Node 326.65583 -0.49538880 +0.21300532
e 0.9993381 Incl. 49.79749 -0.17802585 +0.92399811
From 37 observations 2014 Aug. 31-2015 Sept. 10, mean residual 0".4.
|